QPF
0.00 0.00 0.00 0.00 0.00 0.00 0.00 0.00 0.00 0.00 0.00 0.00 0.00 0.00 0.00 0.00 0.00 0.00 0.00 0.00 0.00 0.00 0.00 0.00 0.00 0.00 0.00 0.00 0.00 0.00 0.00 0.00 0.00 0.01 0.00 0.00 0.00 0.01 0.02 0.04 0.04 0.01 0.05 0.06
0.00 0.00 0.00 0.00 0.00 0.00 0.00 0.00 0.00 0.00 0.00 0.00 0.00 0.00 0.00 0.00 0.00 0.00 0.00 0.00 0.00 0.00 0.00 0.00 0.00 0.00 0.00 0.00 0.00 0.01 0.00 0.00 0.00 0.00 0.00 0.00 0.00 0.00 0.01 0.03 0.05 0.04 0.02 0.06
0.00 0.00 0.00 0.00 0.00 0.00 0.00 0.00 0.00 0.00 0.00 0.00 0.00 0.00 0.00 0.00 0.00 0.00 0.00 0.00 0.00 0.00 0.00 0.00 0.00 0.00 0.00 0.00 0.00 0.00 0.00 0.00 0.00 0.00 0.00 0.00 0.00 0.00 0.01 0.02 0.02 0.03 0.03 0.03
0.00 0.00 0.00 0.00 0.00 0.00 0.00 0.00 0.00 0.00 0.00 0.00 0.00 0.00 0.00 0.00 0.00 0.00 0.00 0.00 0.00 0.00 0.00 0.00 0.00 0.00 0.00 0.00 0.00 0.00 0.00 0.00 0.00 0.00 0.00 0.00 0.00 0.00 0.00 0.01 0.02 0.02 0.03 0.02
0.00 0.00 0.00 0.00 0.00 0.00 0.00 0.00 0.00 0.00 0.00 0.00 0.00 0.00 0.00 0.00 0.00 0.00 0.00 0.00 0.00 0.00 0.00 0.00 0.00 0.01 0.00 0.00 0.00 0.00 0.00 0.00 0.00 0.00 0.00 0.00 0.00 0.00 0.00 0.00 0.02 0.02 0.02 0.03
0.00 0.00 0.00 0.00 0.00 0.00 0.00 0.00 0.00 0.00 0.00 0.00 0.00 0.00 0.00 0.00 0.00 0.00 0.00 0.00 0.00 0.00 0.00 0.00 0.00 0.01 0.01 0.00 0.00 0.00 0.00 0.00 0.00 0.00 0.00 0.00 0.00 0.00 0.00 0.01 0.01 0.02 0.01 0.01
0.00 0.00 0.00 0.00 0.00 0.00 0.00 0.00 0.00 0.00 0.00 0.00 0.00 0.00 0.00 0.00 0.00 0.00 0.00 0.00 0.00 0.00 0.00 0.00 0.00 0.00 0.00 0.00 0.00 0.00 0.00 0.00 0.00 0.00 0.00 0.00 0.00 0.00 0.00 0.00 0.01 0.01 0.01 0.01
0.00 0.00 0.00 0.00 0.00 0.00 0.00 0.00 0.00 0.00 0.00 0.00 0.00 0.00 0.00 0.00 0.00 0.00 0.00 0.00 0.00 0.00 0.00 0.00 0.00 0.00 0.00 0.00 0.00 0.00 0.00 0.00 0.00 0.00 0.00 0.00 0.00 0.00 0.00 0.00 0.00 0.00 0.00 0.00
0.00 0.00 0.00 0.00 0.00 0.00 0.00 0.00 0.00 0.00 0.00 0.00 0.00 0.00 0.00 0.00 0.00 0.00 0.00 0.00 0.00 0.00 0.00 0.00 0.00 0.00 0.00 0.00 0.00 0.00 0.00 0.00 0.00 0.00 0.00 0.00 0.00 0.00 0.00 0.00 0.01 0.00 0.00 0.00
0.00 0.00 0.00 0.00 0.00 0.00 0.00 0.00 0.00 0.00 0.00 0.00 0.00 0.00 0.00 0.00 0.00 0.00 0.00 0.00 0.00 0.00 0.00 0.00 0.00 0.00 0.00 0.00 0.00 0.00 0.00 0.00 0.00 0.00 0.00 0.00 0.00 0.00 0.00 0.00 0.00 0.00 0.00 0.00
0.00 0.00 0.00 0.00 0.00 0.00 0.00 0.00 0.00 0.00 0.00 0.00 0.00 0.00 0.00 0.00 0.00 0.00 0.00 0.00 0.00 0.00 0.00 0.00 0.00 0.00 0.00 0.00 0.00 0.00 0.00 0.00 0.00 0.00 0.00 0.00 0.00 0.00 0.00 0.00 0.00 0.00 0.00 0.00
0.00 0.00 0.00 0.00 0.00 0.00 0.00 0.00 0.00 0.00 0.00 0.00 0.00 0.00 0.00 0.00 0.00 0.00 0.00 0.00 0.00 0.00 0.00 0.00 0.00 0.00 0.00 0.00 0.00 0.00 0.00 0.00 0.00 0.00 0.00 0.00 0.00 0.00 0.00 0.00 0.00 0.00 0.00 0.00
0.00 0.00 0.00 0.00 0.00 0.00 0.00 0.00 0.00 0.00 0.00 0.00 0.00 0.00 0.00 0.00 0.00 0.00 0.00 0.00 0.00 0.00 0.00 0.00 0.00 0.00 0.00 0.00 0.00 0.00 0.00 0.00 0.00 0.00 0.00 0.00 0.00 0.00 0.00 0.00 0.00 0.00 0.00 0.00
0.00 0.00 0.00 0.00 0.00 0.00 0.00 0.00 0.00 0.00 0.00 0.00 0.00 0.00 0.00 0.00 0.00 0.00 0.00 0.00 0.00 0.00 0.00 0.00 0.00 0.00 0.00 0.00 0.00 0.00 0.00 0.00 0.00 0.00 0.00 0.00 0.00 0.00 0.00 0.00 0.00 0.00 0.00 0.00
0.00 0.00 0.00 0.00 0.00 0.00 0.00 0.00 0.00 0.00 0.00 0.00 0.00 0.00 0.00 0.00 0.00 0.00 0.00 0.00 0.00 0.00 0.00 0.00 0.00 0.00 0.00 0.00 0.00 0.00 0.00 0.00 0.00 0.00 0.00 0.00 0.00 0.00 0.00 0.00 0.00 0.00 0.00 0.00
0.00 0.00 0.00 0.00 0.00 0.00 0.00 0.00 0.00 0.00 0.00 0.00 0.00 0.00 0.00 0.00 0.00 0.00 0.00 0.00 0.00 0.00 0.00 0.00 0.00 0.00 0.00 0.00 0.00 0.00 0.00 0.00 0.00 0.00 0.00 0.00 0.00 0.00 0.00 0.00 0.00 0.00 0.00 0.00
0.00 0.00 0.00 0.00 0.00 0.00 0.00 0.00 0.00 0.00 0.00 0.00 0.00 0.00 0.00 0.00 0.00 0.00 0.00 0.00 0.00 0.00 0.00 0.00 0.00 0.00 0.00 0.00 0.00 0.00 0.00 0.00 0.00 0.00 0.00 0.00 0.00 0.00 0.00 0.00 0.00 0.00 0.00 0.00
0.00 0.00 0.00 0.00 0.00 0.00 0.00 0.00 0.00 0.00 0.00 0.00 0.00 0.00 0.00 0.00 0.00 0.00 0.00 0.00 0.00 0.00 0.00 0.00 0.00 0.00 0.00 0.00 0.00 0.00 0.00 0.00 0.00 0.00 0.00 0.00 0.00 0.00 0.00 0.00 0.00 0.00 0.00 0.00
0.00 0.00 0.00 0.00 0.00 0.00 0.00 0.00 0.00 0.00 0.00 0.00 0.00 0.00 0.00 0.00 0.00 0.00 0.00 0.00 0.00 0.00 0.00 0.00 0.00 0.00 0.00 0.00 0.00 0.00 0.00 0.00 0.00 0.00 0.00 0.00 0.00 0.00 0.00 0.00 0.00 0.00 0.00 0.00
0.00 0.00 0.00 0.00 0.00 0.00 0.00 0.00 0.00 0.00 0.00 0.00 0.00 0.00 0.00 0.00 0.00 0.00 0.00 0.00 0.00 0.00 0.00 0.00 0.00 0.00 0.00 0.00 0.00 0.00 0.00 0.00 0.00 0.00 0.00 0.00 0.00 0.00 0.00 0.00 0.00 0.00 0.00 0.00
0.00 0.00 0.00 0.00 0.00 0.00 0.00 0.00 0.00 0.00 0.00 0.00 0.00 0.00 0.00 0.00 0.00 0.00 0.00 0.00 0.00 0.00 0.00 0.00 0.00 0.00 0.00 0.00 0.00 0.00 0.00 0.00 0.00 0.00 0.00 0.00 0.00 0.00 0.00 0.00 0.00 0.00 0.00 0.00
0.00 0.00 0.00 0.00 0.00 0.00 0.00 0.00 0.00 0.00 0.00 0.00 0.00 0.00 0.00 0.00 0.00 0.00 0.00 0.00 0.00 0.00 0.00 0.00 0.00 0.00 0.00 0.00 0.00 0.00 0.00 0.00 0.00 0.00 0.00 0.00 0.00 0.00 0.00 0.00 0.00 0.00 0.00 0.00
0.00 0.00 0.00 0.00 0.00 0.00 0.00 0.00 0.00 0.00 0.00 0.00 0.00 0.00 0.00 0.00 0.00 0.00 0.00 0.00 0.00 0.00 0.00 0.00 0.00 0.00 0.00 0.00 0.00 0.00 0.00 0.00 0.00 0.00 0.00 0.00 0.00 0.00 0.00 0.00 0.00 0.00 0.00 0.00
0.00 0.00 0.00 0.00 0.00 0.00 0.00 0.00 0.00 0.00 0.00 0.00 0.00 0.00 0.00 0.00 0.00 0.00 0.00 0.00 0.00 0.00 0.00 0.00 0.00 0.00 0.00 0.00 0.00 0.00 0.00 0.00 0.00 0.00 0.00 0.00 0.00 0.00 0.00 0.00 0.00 0.01 0.00 0.00
0.00 0.00 0.00 0.00 0.00 0.00 0.00 0.00 0.00 0.00 0.00 0.00 0.00 0.00 0.00 0.00 0.00 0.00 0.00 0.00 0.00 0.00 0.00 0.00 0.00 0.00 0.00 0.00 0.00 0.00 0.00 0.00 0.00 0.00 0.00 0.00 0.00 0.00 0.00 0.00 0.01 0.00 0.00 0.00
0.00 0.00 0.00 0.00 0.00 0.00 0.00 0.00 0.00 0.00 0.00 0.00 0.00 0.00 0.00 0.00 0.00 0.00 0.00 0.00 0.00 0.00 0.00 0.00 0.00 0.00 0.00 0.00 0.00 0.00 0.00 0.00 0.00 0.00 0.00 0.00 0.00 0.00 0.00 0.00 0.00 0.00 0.00 0.00
0.00 0.00 0.00 0.00 0.00 0.00 0.00 0.00 0.00 0.00 0.00 0.00 0.00 0.00 0.00 0.00 0.00 0.00 0.00 0.00 0.00 0.00 0.00 0.00 0.00 0.00 0.00 0.00 0.00 0.00 0.00 0.00 0.00 0.00 0.00 0.00 0.00 0.00 0.00 0.00 0.00 0.00 0.00 0.00
MSLP
1027.96 1027.33 1026.75 1026.15 1025.76 1025.67 1025.66 1025.65 1025.69 1026.25 1025.71 1025.76 1027.63 1028.73 1029.73 1029.93 1029.63 1029.85 1029.83 1029.89 1029.84 1029.78 1029.63 1029.04 1028.82 1028.57 1028.50 1028.36 1027.82 1026.84 1026.53 1026.57 1026.06 1027.08 1028.12 1028.47 1028.23 1027.76 1026.65 1024.65 1022.17 1020.95 1020.48 1024.11
1028.15 1027.53 1026.89 1026.38 1025.97 1025.92 1025.85 1026.15 1026.83 1026.59 1026.13 1027.66 1029.06 1030.11 1030.33 1030.48 1030.30 1030.28 1030.18 1030.19 1030.40 1030.43 1030.11 1029.87 1029.19 1029.03 1028.66 1028.49 1028.02 1027.30 1026.85 1026.81 1026.43 1027.23 1028.42 1028.11 1028.61 1028.33 1027.73 1026.25 1025.31 1024.07 1023.34 1025.79
1028.32 1027.74 1027.16 1026.61 1026.14 1026.07 1026.19 1026.65 1027.40 1028.19 1028.89 1030.53 1030.52 1030.96 1031.14 1030.88 1031.04 1030.92 1030.91 1030.68 1030.81 1030.61 1030.25 1030.35 1029.81 1029.41 1028.94 1028.71 1028.42 1027.75 1027.60 1027.84 1027.91 1028.40 1029.47 1029.69 1029.37 1029.01 1028.42 1027.12 1026.16 1026.28 1026.41 1027.40
1028.56 1027.96 1027.36 1026.84 1026.27 1026.13 1026.16 1027.54 1029.44 1030.37 1030.44 1031.08 1031.57 1031.95 1031.92 1031.68 1031.61 1031.59 1031.28 1030.96 1031.08 1031.24 1030.87 1030.41 1030.28 1029.92 1029.54 1028.96 1028.94 1028.54 1028.42 1028.58 1028.86 1029.23 1029.40 1029.62 1029.71 1029.72 1029.54 1028.96 1028.49 1028.04 1028.94 1029.11
1028.83 1028.24 1027.70 1027.15 1026.42 1026.24 1026.84 1028.51 1029.58 1031.02 1031.51 1031.96 1031.87 1032.25 1032.32 1032.36 1032.16 1032.32 1031.79 1031.71 1031.50 1031.45 1031.44 1031.45 1031.05 1031.12 1030.43 1030.07 1029.56 1029.31 1029.26 1028.88 1029.16 1029.02 1029.18 1029.39 1029.70 1030.02 1030.15 1030.31 1030.34 1030.44 1030.57 1030.69
1029.13 1028.60 1028.21 1027.64 1026.76 1026.28 1027.60 1029.71 1030.32 1030.05 1032.01 1032.08 1032.17 1032.69 1032.74 1032.56 1032.59 1032.30 1032.23 1032.17 1031.80 1031.49 1031.64 1031.84 1031.69 1031.51 1031.32 1031.23 1030.95 1030.31 1029.99 1029.66 1029.15 1028.70 1029.18 1029.18 1029.83 1030.88 1031.01 1031.36 1031.65 1031.70 1031.67 1032.33
1029.38 1028.94 1028.70 1028.34 1027.79 1027.39 1028.11 1029.90 1030.14 1030.41 1031.82 1031.98 1032.29 1032.75 1032.94 1032.78 1032.80 1032.69 1032.32 1032.19 1032.02 1031.85 1031.95 1031.62 1031.66 1031.40 1031.41 1031.45 1031.49 1031.43 1030.77 1030.28 1029.99 1029.29 1029.30 1029.57 1031.20 1031.62 1031.67 1031.94 1032.48 1032.78 1032.75 1032.79
1029.67 1029.28 1029.05 1028.85 1028.74 1028.36 1028.86 1030.30 1030.37 1030.55 1031.72 1032.26 1032.65 1032.80 1032.94 1032.83 1032.96 1032.84 1032.70 1032.42 1032.46 1032.21 1031.88 1031.42 1031.45 1031.30 1031.47 1031.44 1031.60 1031.55 1031.76 1031.22 1030.67 1030.14 1029.86 1031.03 1031.54 1032.21 1032.52 1032.53 1032.61 1033.21 1033.20 1032.73
1029.84 1029.53 1029.35 1029.28 1029.19 1029.17 1029.51 1030.74 1030.98 1030.76 1031.44 1032.60 1032.64 1032.96 1033.49 1033.58 1033.44 1032.93 1032.77 1032.65 1032.64 1032.12 1031.60 1031.63 1032.00 1032.21 1032.80 1032.13 1031.86 1031.94 1031.89 1031.82 1031.14 1030.76 1030.57 1030.94 1032.17 1032.85 1033.27 1033.39 1032.85 1033.44 1033.44 1033.50
1029.91 1029.74 1029.68 1029.52 1029.57 1029.46 1029.49 1030.94 1031.24 1030.93 1031.91 1032.84 1033.09 1033.16 1033.63 1034.26 1034.38 1033.93 1033.56 1033.26 1032.81 1032.44 1032.22 1032.48 1033.10 1033.30 1034.10 1033.63 1033.47 1033.12 1032.68 1032.51 1032.10 1031.53 1031.36 1031.88 1032.74 1033.27 1033.64 1033.65 1034.21 1033.76 1033.93 1033.96
1030.01 1029.95 1029.92 1029.78 1029.68 1029.67 1029.65 1031.18 1031.38 1031.18 1032.10 1033.05 1033.23 1033.34 1033.75 1034.22 1034.28 1033.98 1033.89 1034.09 1033.68 1033.36 1033.40 1033.64 1034.07 1034.10 1034.90 1035.03 1034.94 1034.97 1034.77 1034.31 1033.21 1032.69 1032.28 1032.50 1033.40 1033.68 1034.02 1034.42 1034.41 1034.43 1034.33 1034.31
1030.03 1030.08 1030.07 1029.89 1029.83 1029.78 1029.83 1030.68 1031.40 1031.39 1031.65 1033.00 1033.20 1033.26 1033.38 1033.54 1033.65 1033.99 1034.53 1034.37 1034.55 1034.62 1034.64 1035.02 1034.91 1034.58 1035.12 1035.44 1034.91 1035.80 1035.52 1035.66 1035.08 1034.47 1033.17 1033.35 1033.82 1034.30 1034.69 1035.19 1035.20 1035.07 1035.16 1034.97
1029.95 1030.10 1030.14 1030.00 1029.99 1030.03 1029.97 1030.84 1031.41 1031.32 1031.97 1032.97 1033.18 1033.26 1033.64 1033.76 1033.71 1033.94 1034.30 1034.83 1035.21 1035.49 1035.70 1035.52 1035.64 1035.27 1035.13 1035.05 1035.02 1035.53 1035.58 1036.16 1035.67 1035.06 1033.93 1033.90 1034.12 1034.78 1035.22 1035.61 1035.68 1035.71 1035.79 1035.73
1029.76 1029.99 1030.10 1030.01 1030.20 1030.25 1030.29 1030.84 1031.53 1031.41 1031.77 1032.14 1032.98 1033.36 1033.61 1033.89 1033.80 1033.93 1034.22 1034.79 1035.74 1036.11 1036.09 1035.88 1035.60 1035.27 1035.62 1035.51 1036.03 1036.01 1036.05 1036.37 1035.45 1034.69 1034.02 1034.42 1034.35 1034.83 1035.08 1035.60 1036.00 1036.14 1036.15 1036.00
1029.56 1029.72 1029.91 1030.04 1030.34 1030.55 1030.76 1031.16 1031.62 1031.60 1031.80 1031.82 1032.70 1033.24 1033.60 1033.78 1033.85 1034.06 1034.38 1034.80 1035.46 1036.01 1036.37 1036.07 1035.78 1036.07 1036.22 1036.38 1036.28 1035.23 1035.40 1034.96 1035.09 1034.06 1034.09 1034.38 1034.48 1034.85 1035.44 1035.67 1035.64 1035.64 1035.92 1035.81
1029.49 1029.76 1030.00 1030.16 1030.49 1030.79 1030.76 1031.13 1031.69 1031.73 1031.75 1031.91 1032.59 1033.17 1033.51 1033.79 1033.94 1034.27 1034.62 1035.04 1035.69 1035.88 1035.58 1035.74 1036.16 1036.61 1036.21 1035.80 1034.89 1033.58 1033.96 1034.55 1034.26 1034.53 1034.68 1034.89 1035.01 1035.48 1035.64 1035.69 1035.48 1035.52 1035.74 1035.62
1029.47 1029.84 1030.12 1030.38 1030.51 1030.94 1030.94 1031.42 1031.62 1031.72 1031.88 1032.02 1032.64 1033.01 1033.69 1034.06 1034.18 1034.46 1034.71 1035.36 1035.57 1035.68 1035.78 1035.79 1035.65 1036.00 1036.08 1035.57 1034.13 1032.73 1033.26 1033.86 1034.53 1035.02 1035.67 1035.47 1035.19 1034.93 1035.07 1035.47 1035.38 1035.47 1035.48 1035.33
1029.62 1029.89 1030.07 1030.39 1030.70 1031.05 1031.24 1031.56 1031.52 1031.82 1031.96 1032.43 1033.01 1033.23 1033.83 1034.33 1034.18 1034.44 1035.00 1035.03 1035.31 1035.54 1035.60 1035.97 1035.66 1036.19 1036.03 1034.68 1032.62 1032.93 1033.57 1034.18 1034.52 1034.59 1035.06 1034.52 1034.93 1034.96 1034.94 1035.07 1035.18 1035.05 1034.70 1034.30
1029.68 1029.80 1030.30 1030.79 1031.13 1031.28 1031.57 1031.63 1031.83 1032.16 1032.63 1032.69 1033.30 1033.49 1033.98 1034.42 1034.55 1034.93 1035.12 1035.21 1035.06 1035.65 1035.39 1035.52 1035.66 1035.17 1034.34 1032.55 1032.83 1033.06 1033.20 1033.57 1033.54 1033.82 1034.04 1034.32 1034.34 1033.80 1033.76 1033.93 1033.88 1033.74 1033.16 1033.06
1029.86 1030.25 1030.70 1031.09 1031.54 1031.50 1031.60 1031.70 1031.87 1032.23 1033.17 1033.28 1033.53 1034.39 1034.43 1034.86 1034.78 1035.08 1035.57 1035.49 1035.49 1035.34 1035.68 1035.63 1035.09 1033.37 1031.94 1032.33 1032.52 1032.73 1033.01 1033.14 1033.37 1033.41 1032.94 1032.89 1032.79 1032.44 1032.03 1031.87 1031.83 1031.80 1031.57 1031.51
1030.27 1030.59 1031.03 1031.58 1031.59 1031.62 1031.78 1031.82 1032.19 1032.87 1033.39 1033.82 1034.52 1034.92 1034.97 1035.44 1035.48 1035.64 1036.50 1035.99 1036.01 1035.71 1035.74 1035.33 1034.12 1032.59 1031.47 1031.61 1032.15 1032.38 1032.49 1032.51 1032.49 1032.31 1031.87 1031.67 1031.37 1031.03 1030.79 1030.49 1030.55 1030.58 1030.50 1030.41
1030.11 1030.62 1031.41 1031.73 1031.78 1031.77 1031.90 1031.98 1032.75 1032.98 1033.32 1034.25 1034.72 1035.05 1035.31 1035.84 1036.15 1036.11 1036.96 1036.53 1036.41 1035.84 1035.94 1035.10 1033.26 1030.96 1030.65 1031.29 1031.64 1031.78 1031.74 1031.52 1031.37 1031.28 1031.00 1030.61 1030.38 1030.15 1029.96 1029.76 1029.62 1029.57 1029.50 1029.67
1030.55 1030.82 1031.48 1031.70 1032.02 1031.95 1031.56 1031.57 1031.75 1032.45 1033.04 1034.04 1034.75 1035.23 1035.50 1036.12 1036.58 1036.76 1036.88 1036.63 1036.31 1036.17 1035.41 1033.57 1031.13 1030.14 1030.34 1030.77 1031.03 1031.01 1031.04 1030.98 1030.84 1030.59 1030.32 1030.00 1029.60 1029.31 1029.20 1028.99 1028.91 1029.00 1029.02 1029.17
1030.87 1031.29 1031.71 1032.00 1031.74 1031.06 1030.51 1030.90 1031.37 1032.28 1032.81 1033.84 1034.46 1035.02 1035.60 1035.67 1036.07 1036.57 1036.46 1036.66 1036.30 1035.11 1033.98 1031.45 1029.77 1029.36 1029.78 1030.29 1030.61 1030.70 1030.56 1030.64 1030.51 1030.27 1030.01 1029.70 1029.34 1028.97 1028.76 1028.65 1028.63 1028.68 1028.84 1029.07
1031.27 1031.58 1031.52 1031.29 1030.39 1030.70 1031.15 1031.63 1032.14 1032.88 1033.43 1033.79 1034.44 1034.96 1035.19 1035.46 1035.87 1036.06 1036.17 1035.89 1034.32 1032.74 1030.64 1029.29 1028.73 1028.99 1029.62 1029.95 1030.16 1030.29 1030.49 1030.39 1030.33 1030.14 1029.90 1029.61 1029.32 1029.07 1028.89 1028.89 1028.96 1029.02 1029.08 1029.17
1031.41 1031.40 1030.94 1030.92 1030.96 1030.82 1031.40 1031.73 1032.15 1032.85 1033.36 1033.82 1034.06 1034.53 1034.88 1034.88 1034.98 1035.23 1033.92 1033.24 1031.04 1028.97 1028.78 1028.21 1028.56 1028.95 1029.27 1029.47 1029.72 1029.87 1030.04 1030.16 1030.14 1030.03 1029.82 1029.60 1029.46 1029.40 1029.34 1029.29 1029.22 1029.25 1029.24 1029.20
1031.36 1030.74 1030.45 1030.48 1030.58 1030.45 1030.86 1031.29 1031.89 1032.68 1032.93 1033.21 1033.76 1034.00 1033.65 1034.53 1034.00 1032.90 1032.04 1030.18 1027.99 1027.52 1027.51 1027.74 1028.07 1028.34 1028.56 1029.02 1029.39 1029.63 1029.79 1029.84 1029.89 1029.85 1029.76 1029.68 1029.60 1029.53 1029.39 1029.36 1029.30 1029.34 1029.24 1029.16
Thickness
5533 5531 5528 5523 5517 5509 5498 5487 5488 5456 5445 5441 5402 5379 5350 5339 5329 5315 5301 5289 5275 5258 5244 5234 5225 5222 5218 5220 5220 5220 5225 5214 5217 5207 5199 5198 5205 5208 5223 5258 5306 5317 5335 5283
5528 5527 5523 5519 5513 5505 5496 5483 5464 5451 5444 5428 5393 5362 5350 5335 5323 5310 5297 5284 5271 5256 5239 5223 5224 5218 5222 5217 5216 5216 5223 5218 5224 5216 5203 5214 5201 5208 5210 5232 5243 5265 5330 5279
5523 5522 5519 5515 5510 5502 5491 5481 5476 5442 5418 5385 5375 5354 5342 5331 5318 5304 5291 5283 5270 5258 5243 5229 5217 5215 5217 5215 5213 5217 5216 5206 5207 5205 5183 5189 5192 5200 5205 5226 5263 5250 5258 5258
5519 5518 5514 5510 5507 5499 5489 5467 5435 5414 5418 5389 5362 5341 5332 5324 5309 5298 5289 5281 5268 5250 5234 5229 5218 5216 5210 5214 5208 5209 5207 5191 5191 5186 5189 5191 5193 5192 5194 5198 5210 5238 5225 5231
5515 5512 5509 5506 5504 5496 5480 5467 5442 5407 5391 5369 5363 5344 5334 5316 5306 5288 5284 5271 5263 5251 5233 5222 5208 5198 5203 5201 5204 5202 5199 5200 5193 5190 5194 5195 5190 5192 5192 5189 5190 5200 5208 5211
5509 5507 5502 5500 5499 5493 5474 5441 5425 5423 5381 5371 5365 5345 5329 5319 5302 5295 5283 5269 5260 5252 5239 5222 5209 5199 5193 5188 5187 5191 5191 5194 5202 5204 5194 5198 5195 5173 5181 5178 5177 5185 5203 5193
5504 5501 5496 5492 5488 5483 5467 5441 5428 5421 5396 5380 5365 5341 5324 5316 5301 5286 5282 5271 5258 5253 5236 5226 5213 5205 5194 5189 5182 5179 5183 5187 5189 5201 5196 5198 5169 5171 5174 5174 5169 5171 5179 5186
5499 5496 5491 5485 5478 5473 5459 5436 5427 5414 5393 5376 5355 5342 5326 5317 5300 5290 5278 5271 5258 5246 5237 5236 5224 5218 5203 5194 5184 5181 5170 5172 5180 5189 5189 5168 5166 5160 5159 5162 5173 5164 5166 5180
5494 5491 5486 5480 5472 5464 5452 5432 5420 5410 5395 5379 5357 5344 5322 5314 5301 5296 5282 5268 5254 5249 5247 5237 5219 5210 5178 5191 5188 5179 5176 5168 5183 5182 5180 5182 5159 5154 5151 5153 5175 5157 5160 5166
5491 5486 5480 5474 5466 5458 5449 5429 5416 5407 5388 5367 5352 5349 5331 5299 5284 5280 5269 5263 5255 5249 5246 5233 5214 5207 5169 5183 5171 5161 5167 5163 5165 5176 5174 5171 5154 5148 5147 5164 5160 5152 5152 5155
5486 5481 5475 5470 5462 5454 5445 5426 5413 5404 5382 5363 5349 5336 5317 5300 5286 5287 5274 5263 5253 5246 5233 5224 5206 5198 5171 5160 5146 5138 5141 5143 5164 5167 5165 5165 5146 5146 5151 5145 5141 5143 5146 5148
5482 5477 5471 5466 5458 5451 5442 5427 5410 5399 5387 5367 5349 5337 5324 5310 5296 5282 5260 5260 5243 5232 5222 5201 5193 5197 5166 5146 5178 5125 5154 5135 5143 5141 5164 5145 5140 5136 5132 5123 5130 5136 5135 5139
5479 5474 5467 5462 5454 5446 5438 5423 5408 5398 5382 5364 5350 5339 5322 5308 5295 5281 5272 5254 5236 5223 5211 5207 5191 5191 5174 5183 5175 5144 5133 5110 5124 5123 5136 5130 5132 5124 5122 5116 5122 5124 5123 5126
5477 5471 5464 5459 5450 5442 5434 5421 5405 5395 5382 5374 5353 5333 5321 5306 5294 5281 5267 5251 5230 5216 5208 5205 5201 5197 5169 5170 5148 5144 5135 5113 5124 5128 5131 5120 5127 5121 5126 5119 5113 5112 5114 5117
5474 5469 5462 5455 5446 5438 5428 5415 5402 5391 5382 5378 5352 5333 5318 5305 5293 5280 5266 5251 5235 5224 5214 5207 5206 5180 5165 5134 5131 5149 5125 5141 5140 5148 5134 5133 5133 5120 5107 5107 5113 5116 5112 5117
5471 5465 5458 5451 5442 5433 5425 5416 5399 5388 5375 5368 5358 5334 5318 5304 5292 5278 5264 5248 5230 5223 5224 5212 5182 5153 5168 5169 5171 5165 5135 5120 5127 5139 5116 5113 5110 5101 5101 5104 5109 5110 5105 5109
5467 5460 5453 5446 5439 5429 5422 5412 5398 5385 5373 5366 5352 5340 5315 5300 5288 5276 5265 5246 5235 5227 5212 5205 5198 5178 5169 5161 5176 5177 5148 5136 5121 5105 5101 5113 5103 5120 5098 5093 5097 5095 5099 5100
5462 5456 5450 5442 5434 5423 5415 5403 5394 5382 5371 5356 5344 5341 5319 5296 5292 5284 5259 5254 5239 5226 5216 5195 5196 5172 5162 5172 5182 5158 5140 5124 5113 5107 5099 5111 5095 5093 5093 5087 5085 5091 5095 5102
5457 5452 5445 5436 5428 5420 5409 5398 5390 5378 5368 5361 5341 5345 5338 5294 5284 5269 5261 5246 5250 5220 5221 5206 5192 5189 5189 5199 5176 5156 5150 5145 5139 5118 5104 5099 5094 5101 5101 5096 5095 5094 5100 5104
5452 5447 5440 5433 5421 5412 5404 5394 5386 5373 5354 5342 5345 5309 5323 5292 5282 5271 5257 5242 5240 5237 5215 5195 5193 5208 5199 5175 5163 5155 5142 5130 5119 5123 5125 5116 5110 5112 5114 5113 5111 5109 5110 5110
5447 5441 5435 5422 5414 5408 5394 5389 5382 5362 5362 5337 5317 5306 5311 5281 5284 5271 5236 5238 5222 5231 5216 5203 5209 5210 5208 5184 5166 5157 5145 5135 5127 5121 5121 5118 5117 5118 5119 5119 5115 5112 5110 5108
5443 5436 5424 5416 5407 5398 5395 5385 5361 5360 5376 5328 5326 5310 5293 5277 5262 5260 5231 5237 5213 5231 5186 5194 5211 5223 5200 5181 5167 5159 5150 5144 5136 5128 5123 5121 5118 5116 5114 5113 5111 5110 5109 5105
5435 5428 5418 5414 5399 5414 5419 5416 5406 5384 5338 5324 5311 5308 5291 5271 5255 5236 5231 5229 5226 5184 5195 5218 5225 5212 5198 5181 5170 5164 5153 5143 5135 5129 5124 5121 5118 5116 5112 5109 5107 5102 5099 5096
5429 5418 5425 5420 5418 5412 5414 5410 5396 5357 5341 5322 5310 5296 5287 5272 5259 5232 5240 5208 5191 5210 5204 5228 5231 5210 5198 5184 5171 5158 5152 5140 5131 5124 5119 5116 5113 5111 5107 5104 5099 5095 5090 5085
5421 5412 5434 5404 5409 5386 5373 5360 5356 5340 5329 5319 5306 5291 5281 5267 5251 5234 5211 5212 5227 5230 5247 5237 5227 5207 5186 5181 5171 5159 5144 5135 5124 5118 5113 5109 5106 5103 5099 5093 5087 5082 5077 5073
5409 5403 5415 5394 5395 5393 5371 5361 5357 5337 5325 5312 5303 5287 5276 5270 5254 5235 5243 5242 5253 5268 5231 5232 5214 5201 5184 5180 5169 5156 5141 5127 5117 5112 5109 5105 5100 5093 5088 5082 5077 5072 5067 5064
5404 5410 5401 5399 5392 5397 5380 5367 5355 5335 5329 5327 5300 5300 5303 5243 5250 5245 5239 5252 5273 5255 5241 5227 5215 5207 5195 5180 5165 5150 5137 5127 5117 5109 5103 5097 5092 5087 5082 5077 5072 5066 5062 5058